Coeur d'Alene, ID

12:04 AM PDT on October 17, 2017 (GMT -0700)
Coeur D'Alene

Weather History for KCOE - March, 2013

Change the Weather History Date:

Sunday, March 3, 2013

  Actual Average Record
Temperature  
Mean Temperature 37 °F -  
Max Temperature 44 °F 39 °F 55 °F (2005)
Min Temperature 30 °F 25 °F 19 °F (2014)
Degree Days  
Heating Degree Days 28    
Moisture  
Dew Point 23 °F    
Average Humidity 56    
Maximum Humidity 80    
Minimum Humidity 37    
Precipitation  
Precipitation 0.00 in - - ()
Sea Level Pressure  
Sea Level Pressure 29.99 in    
Wind  
Wind Speed 16 mph (West)    
Max Wind Speed 28 mph    
Max Gust Speed 33 mph    
Visibility 10 miles    
Events      
Averages and records for this station are not official NWS values.
T = Trace of Precipitation, MM = Missing Value Source: NWS Daily Summary

Daily Weather History Graph

Daily Weather History Graph

Search for Another Location

Airport or City:

Trip Planner

Search our weather history database for the weather conditions in past years. The results will help you decide how hot, cold, wet, or windy it might be!

Date:

Astronomy

Mar. 03, 2013 Rise Set
Actual Time 6:23 AM PST 5:35 PM PST
Civil Twilight 5:52 AM PST 6:06 PM PST
Nautical Twilight 5:16 AM PST 6:42 PM PST
Astronomical Twilight 4:40 AM PST 7:18 PM PST
Moon No Moon Rise 9:13 AM PST (3/3)
Length of Visible Light 12h 13m
Length of Day
11h 12m
Waning Gibbous, 62% of the Moon is Illuminated
Mar 3
Waning Gibbous
Mar 4
Last Quarter
Mar 11
New
Mar 19
First Quarter
Mar 27
Full

Hourly Weather History & Observations

Time (PST) Temp. Windchill Dew Point Humidity Pressure Visibility Wind Dir Wind Speed Gust Speed Precip Events Conditions
12:15 AM 44.6 °F 35.7 °F 35.6 °F 71% 29.86 in 10.0 mi SW 24.2 mph 31.1 mph N/A   Overcast
12:35 AM 44.6 °F 36.9 °F 35.6 °F 71% 29.86 in 10.0 mi SW 18.4 mph 27.6 mph N/A   Overcast
12:55 AM 42.8 °F 35.4 °F 35.6 °F 76% 29.86 in 10.0 mi SW 15.0 mph 24.2 mph N/A   Overcast
1:15 AM 42.8 °F 32.7 °F 35.6 °F 76% 29.87 in 10.0 mi WSW 27.6 mph 33.4 mph N/A   Overcast
1:35 AM 39.2 °F 29.6 °F 32.0 °F 75% 29.87 in 10.0 mi SW 19.6 mph 26.5 mph N/A   Overcast
1:55 AM 39.2 °F 30.8 °F 30.2 °F 70% 29.87 in 10.0 mi SW 15.0 mph - N/A   Overcast
2:15 AM 39.2 °F 30.8 °F 28.4 °F 65% 29.87 in 10.0 mi WSW 15.0 mph - N/A   Overcast
2:35 AM 37.4 °F 28.5 °F 24.8 °F 60% 29.88 in 10.0 mi WSW 15.0 mph 25.3 mph N/A   Scattered Clouds
2:55 AM 35.6 °F 25.5 °F 24.8 °F 65% 29.88 in 10.0 mi WSW 17.3 mph - N/A   Clear
3:15 AM 35.6 °F 25.5 °F 24.8 °F 65% 29.88 in 10.0 mi WSW 17.3 mph - N/A   Clear
3:35 AM 35.6 °F 26.2 °F 24.8 °F 65% 29.89 in 10.0 mi WSW 15.0 mph 23.0 mph N/A   Partly Cloudy
4:15 AM 33.8 °F 23.5 °F 21.2 °F 60% 29.89 in 10.0 mi WSW 16.1 mph - N/A   Partly Cloudy
4:35 AM 35.6 °F 26.6 °F 23.0 °F 60% 29.91 in 10.0 mi West 13.8 mph - N/A   Mostly Cloudy
4:55 AM 35.6 °F 24.8 °F 23.0 °F 60% 29.91 in 10.0 mi WSW 19.6 mph 25.3 mph N/A   Overcast
5:15 AM 33.8 °F 23.2 °F 21.2 °F 60% 29.92 in 10.0 mi WSW 17.3 mph 27.6 mph N/A   Overcast
5:35 AM 33.8 °F 22.5 °F 21.2 °F 60% 29.92 in 10.0 mi WSW 19.6 mph 24.2 mph N/A   Overcast
5:55 AM 33.8 °F 23.9 °F 19.4 °F 56% 29.93 in 10.0 mi WSW 15.0 mph 19.6 mph N/A   Mostly Cloudy
6:15 AM 32.0 °F 21.6 °F 19.4 °F 60% 29.93 in 10.0 mi WSW 15.0 mph 24.2 mph N/A   Clear
6:35 AM 32.0 °F 21.2 °F 19.4 °F 60% 29.93 in 10.0 mi WSW 16.1 mph - N/A   Clear
6:55 AM 32.0 °F 20.8 °F 19.4 °F 60% 29.93 in 10.0 mi WSW 17.3 mph 27.6 mph N/A   Mostly Cloudy
7:15 AM 32.0 °F 20.5 °F 19.4 °F 60% 29.93 in 10.0 mi West 18.4 mph 23.0 mph N/A   Mostly Cloudy
7:35 AM 33.8 °F 22.5 °F 21.2 °F 60% 29.93 in 10.0 mi WSW 19.6 mph 27.6 mph N/A   Clear
7:55 AM 33.8 °F 22.8 °F 21.2 °F 60% 29.95 in 10.0 mi West 18.4 mph 23.0 mph N/A   Scattered Clouds
8:15 AM 33.8 °F 24.3 °F 19.4 °F 56% 29.96 in 10.0 mi West 13.8 mph 20.7 mph N/A   Overcast
8:35 AM 33.8 °F 23.2 °F 21.2 °F 60% 29.96 in 10.0 mi West 17.3 mph - N/A   Overcast
8:55 AM 33.8 °F 23.5 °F 21.2 °F 60% 29.96 in 10.0 mi West 16.1 mph - N/A   Overcast
9:15 AM 33.8 °F 25.8 °F 21.2 °F 60% 29.96 in 10.0 mi WSW 10.4 mph - N/A   Overcast
9:35 AM 35.6 °F 29.2 °F 21.2 °F 56% 29.97 in 10.0 mi WSW 8.1 mph - N/A   Overcast
9:55 AM 35.6 °F 27.1 °F 23.0 °F 60% 29.97 in 10.0 mi WSW 12.7 mph - N/A   Overcast
10:15 AM 37.4 °F 28.9 °F 23.0 °F 56% 29.97 in 10.0 mi WSW 13.8 mph 18.4 mph N/A   Mostly Cloudy
10:35 AM 37.4 °F 28.9 °F 21.2 °F 52% 29.98 in 10.0 mi WSW 13.8 mph 19.6 mph N/A   Mostly Cloudy
10:55 AM 41.0 °F 32.5 °F 24.8 °F 53% 29.98 in 10.0 mi West 17.3 mph 21.9 mph N/A   Overcast
11:15 AM 39.2 °F 29.6 °F 21.2 °F 49% 29.98 in 10.0 mi WSW 19.6 mph 24.2 mph N/A   Overcast
11:35 AM 39.2 °F 30.5 °F 23.0 °F 52% 29.98 in 10.0 mi WSW 16.1 mph 24.2 mph N/A   Overcast
11:55 AM 42.8 °F 34.8 °F 23.0 °F 46% 29.98 in 10.0 mi West 17.3 mph 26.5 mph N/A   Overcast
12:15 PM 44.6 °F 36.9 °F 23.0 °F 43% 29.98 in 10.0 mi WSW 18.4 mph 24.2 mph N/A   Overcast
12:35 PM 42.8 °F 33.8 °F 21.2 °F 42% 29.98 in 10.0 mi West 21.9 mph 25.3 mph N/A   Mostly Cloudy
12:55 PM 44.6 °F 36.1 °F 21.2 °F 39% 29.98 in 10.0 mi West 21.9 mph 29.9 mph N/A   Mostly Cloudy
1:15 PM 44.6 °F 36.6 °F 23.0 °F 43% 29.98 in 10.0 mi West 19.6 mph 29.9 mph N/A   Scattered Clouds
1:35 PM 44.6 °F 37.8 °F 21.2 °F 39% 29.98 in 10.0 mi West 15.0 mph 25.3 mph N/A   Scattered Clouds
1:55 PM 44.6 °F 37.4 °F 21.2 °F 39% 29.99 in 10.0 mi West 16.1 mph 25.3 mph N/A   Partly Cloudy
2:15 PM 44.6 °F 36.4 °F 19.4 °F 37% 29.98 in 10.0 mi WSW 20.7 mph 26.5 mph N/A   Partly Cloudy
2:35 PM 44.6 °F 37.4 °F 19.4 °F 37% 29.99 in 10.0 mi WSW 16.1 mph 24.2 mph N/A   Mostly Cloudy
2:55 PM 44.6 °F 36.9 °F 19.4 °F 37% 30.00 in 10.0 mi West 18.4 mph 27.6 mph N/A   Mostly Cloudy
3:15 PM 44.6 °F 37.4 °F 21.2 °F 39% 30.00 in 10.0 mi WSW 16.1 mph 26.5 mph N/A   Mostly Cloudy
3:35 PM 44.6 °F 36.9 °F 19.4 °F 37% 30.00 in 10.0 mi WSW 18.4 mph 24.2 mph N/A   Mostly Cloudy
3:55 PM 42.8 °F 34.0 °F 21.2 °F 42% 30.01 in 10.0 mi WSW 20.7 mph 25.3 mph N/A   Overcast
4:35 PM 42.8 °F 34.8 °F 19.4 °F 39% 30.02 in 10.0 mi WSW 17.3 mph 20.7 mph N/A   Overcast
4:55 PM 41.0 °F 34.3 °F 19.4 °F 42% 30.02 in 10.0 mi WSW 11.5 mph - N/A   Overcast
5:15 PM 41.0 °F 34.3 °F 19.4 °F 42% 30.03 in 10.0 mi WSW 11.5 mph - N/A   Overcast
5:35 PM 39.2 °F 33.6 °F 19.4 °F 45% 30.03 in 10.0 mi WSW 8.1 mph - N/A   Overcast
5:55 PM 39.2 °F 33.6 °F 21.2 °F 49% 30.04 in 10.0 mi West 8.1 mph - N/A   Overcast
6:15 PM 37.4 °F 31.4 °F 21.2 °F 52% 30.05 in 10.0 mi WNW 8.1 mph - N/A   Overcast
6:35 PM 37.4 °F 32.1 °F 21.2 °F 52% 30.06 in 10.0 mi WNW 6.9 mph - N/A   Overcast
6:55 PM 39.2 °F 35.0 °F 19.4 °F 45% 30.06 in 10.0 mi NNE 5.8 mph - N/A   Overcast
7:15 PM 37.4 °F 32.1 °F 19.4 °F 48% 30.07 in 10.0 mi NNE 6.9 mph - N/A   Overcast
7:35 PM 37.4 °F 32.8 °F 19.4 °F 48% 30.08 in 10.0 mi NNE 5.8 mph - N/A   Overcast
7:55 PM 35.6 °F 30.7 °F 21.2 °F 56% 30.08 in 10.0 mi North 5.8 mph - N/A   Overcast
8:15 PM 35.6 °F 29.9 °F 21.2 °F 56% 30.09 in 10.0 mi NNE 6.9 mph - N/A   Overcast
8:35 PM 35.6 °F 31.7 °F 21.2 °F 56% 30.10 in 10.0 mi NNE 4.6 mph - N/A   Overcast
8:55 PM 35.6 °F 31.7 °F 21.2 °F 56% 30.11 in 10.0 mi NE 4.6 mph - N/A   Overcast
9:15 PM 35.6 °F 28.6 °F 21.2 °F 56% 30.12 in 10.0 mi NE 9.2 mph - N/A   Overcast
9:35 PM 33.8 °F 27.0 °F 24.8 °F 70% 30.13 in 10.0 mi NNE 8.1 mph - N/A   Overcast
9:55 PM 33.8 °F 27.7 °F 23.0 °F 65% 30.13 in 10.0 mi NNE 6.9 mph - N/A   Overcast
10:15 PM 33.8 °F 26.4 °F 24.8 °F 70% 30.14 in 10.0 mi NNE 9.2 mph - N/A   Overcast
10:35 PM 33.8 °F 27.7 °F 24.8 °F 70% 30.14 in 10.0 mi NE 6.9 mph - N/A   Overcast
10:55 PM 33.8 °F 27.0 °F 26.6 °F 75% 30.14 in 10.0 mi NNE 8.1 mph - N/A   Overcast
11:15 PM 30.2 °F 21.3 °F 24.8 °F 80% 30.15 in 10.0 mi NNE 10.4 mph - N/A   Mostly Cloudy
11:35 PM 32.0 °F 24.2 °F 26.6 °F 80% 30.15 in 10.0 mi NNE 9.2 mph - N/A   Scattered Clouds
11:55 PM 32.0 °F 24.8 °F 24.8 °F 75% 30.16 in 10.0 mi NNE 8.1 mph - N/A   Overcast